Miscellaneous Local Product
Issued by NWS North Platte, NE

Home | Current Version | Previous Version | Graphics & Text | Print | Product List | Glossary On
Versions: 1 2 3 4 5 6 7 8 9 10 11 12 13 14 15 16 17 18 19 20 21 22 23 24 25 26 27 28 29 30 31 32 33 34 35 36 37 38 39 40 41 42 43 44 45 46 47 48 49 50
432
AXUS43 KLBF 281410
MISLBF


WESTERN AND NORTH CENTRAL NEBRASKA HOURLY WEATHER ROUNDUP
NATIONAL WEATHER SERVICE NORTH PLATTE NE
900 AM CDT THU APR 28 2016

NOTE: "FAIR" INDICATES FEW OR NO CLOUDS BELOW 12,000 FEET WITH NO
SIGNIFICANT WEATHER AND/OR OBSTRUCTIONS TO VISIBILITY.

NOTE: STATIONS NOT REPORTING VARIABLES SUCH AS SKY/WEATHER OR
PRESSURE ARE PROVIDED BY RAWS AND APRS NETWORKS AND ARE NOT UNDER
NATIONAL WEATHER SERVICE QUALITY CONTROL.

...OBSERVATIONS IN AND NEAR THE EASTERN PANHANDLE OF NEBRASKA...

CITY           SKY/WX    TMP DP  RH WIND       PRES   REMARKS
PINE RIDGE     CLOUDY    33  30  88 N7        30.00R WCI  27
CHADRON        CLOUDY    34  31  88 N7        30.03R WCI  28
ALLIANCE       CLOUDY    32  29  88 N9        29.99R WCI  24
SIDNEY         CLOUDY    35  28  75 N16       29.99R WCI  25
CRESCENT LAKE    N/A     33  29  84 N14         N/A  WCI  23
BIG SPRINGS      N/A     34  31  89 N5          N/A  WCI  30
$$

...OBSERVATIONS IN NORTHERN NEBRASKA AND FAR SOUTHERN SOUTH DAKOTA...

CITY           SKY/WX    TMP DP  RH WIND       PRES   REMARKS
WINNER         LGT RAIN  37  34  89 N10       29.99R FOG     WCI  30
VALENTINE      CLOUDY    35  33  92 NW15      29.99R WCI  25
THEDFORD       CLOUDY    35  33  94 NW13      29.98R WCI  26
AINSWORTH      CLOUDY    35  35  99 NW16G22   29.97R FOG     WCI  25
O`NEILL        CLOUDY    40  39  95 N13       29.94R FOG     WCI  33
ORD            CLOUDY    40  38  93 NW15      29.93R WCI  32
BROKEN BOW     LGT RAIN  36  34  92 NW14      29.96R WCI  27
VALENTINE NWR    N/A     33  33  99 NW15        N/A  WCI  23
BUTTE            N/A     36  35  96 N10         N/A  WCI  28
HALSEY           N/A     33  33 100 NW6         N/A  WCI  27
CHAMBERS         N/A     42  41  98 N3G12       N/A
EWING            N/A     42  40  94 N9          N/A
$$

...OBSERVATIONS IN SOUTHWEST NEBRASKA AND FAR NORTHEAST COLORADO...

CITY           SKY/WX    TMP DP  RH WIND       PRES   REMARKS
IMPERIAL       CLOUDY    35  30  82 N15       30.00S WCI  25
OGALLALA       FAIR      37  28  69 N17       29.98F WCI  27
NORTH PLATTE   FAIR      39  32  76 N15       29.97S WCI  31
MCCOOK         FAIR      40  32  73 NW13      30.01R WCI  32
LEXINGTON      FAIR      41  35  80 N17       29.96R
PAXTON           N/A     34  32  92 NW7         N/A  WCI  28
STAPLETON        N/A     36  33  88 CALM        N/A
GOTHENBURG       N/A     35  32  89 NW13        N/A  WCI  26
CALLAWAY         N/A     35  33  92 NW13        N/A  WCI  26
$$

...OBSERVATIONS IN CENTRAL LINCOLN COUNTY AREA...

CITY           SKY/WX    TMP DP  RH WIND       PRES   REMARKS
N.P. AIRPORT   FAIR      39  32  76 N15       29.97S WCI  31
N.P. DOWNTOWN    N/A     38  33  83 NW12G20     N/A  WCI  30
N.P. SOUTHEAST   N/A     38  32  79 N9G17       N/A  WCI  31
N.P. HILLCREST   N/A     38  33  82 N18G26      N/A  WCI  28
$$

...SOME OBSERVATIONS FROM AROUND THE REGION...

CITY           SKY/WX    TMP DP  RH WIND       PRES   REMARKS
DENVER         CLOUDY    36  25  64 E6        29.96R WCI  31
LARAMIE        CLOUDY    28  23  81 NE7       29.91R WCI  21
CHEYENNE       CLOUDY    32  28  85 NE5       29.95R WCI  27
SCOTTSBLUFF    FAIR      38  27  64 N9        29.99S WCI  31
RAPID CITY     CLOUDY    33  32  96 N9        30.02R FOG     WCI  25
BISMARCK       CLOUDY    40  34  79 CALM      30.09R
PIERRE         CLOUDY    37  33  85 N7        30.01R WCI  32
SIOUX FALLS    LGT RAIN  39  36  89 NE12      29.90R FOG     WCI  32
OMAHA          CLOUDY    47  43  86 NW15      29.83R
GRAND ISLAND   CLOUDY    41  40  96 NW17      29.92R
KANSAS CITY    CLOUDY    48  43  82 W12       29.88R
WICHITA        FAIR      51  35  54 N14       29.97R
OKLAHOMA CITY  FAIR      58  44  60 NE14      29.95R
DALLAS         FAIR      69  57  65 E9        29.89R
AMARILLO       FAIR      52  41  66 E21G29    29.89R
DODGE CITY     FAIR      43  32  65 N21       29.98R
HAYS           FAIR      45  28  53 NW10      30.00R
GOODLAND       FAIR      39  29  67 N14       30.00R WCI  31
$$




USA.gov is the U.S. government's official web portal to all federal, state and local government web resources and services.